• In Hungary
  • List of Countries
  • For 7 days
  • Water Temperature
  • Satellite Maps
  • Weather Map
  • News
  • Weather Widgets
  • user-avatar
    Login

    Hourly Weather Shumen

    Today, 20 August, Monday

    Time Temperature Precipitation Wind Pressure Humidity
    00:00 +21°C° 0 mm 1 mps 731 mmHg 75%
    01:00 +21°C° 0 mm 1 mps 731 mmHg 78%
    02:00 +20°C° 0 mm 1 mps 730 mmHg 80%
    03:00 +20°C° 0 mm 1 mps 730 mmHg 82%
    04:00 +19°C° 0 mm 1 mps 730 mmHg 84%
    05:00 +19°C° 0 mm 1 mps 730 mmHg 86%
    06:00 +20°C° 0 mm 2 mps 730 mmHg 79%
    07:00 +23°C° 0 mm 2 mps 731 mmHg 72%
    08:00 +24°C° 0 mm 2 mps 731 mmHg 65%
    09:00 +26°C° 0 mm 3 mps 731 mmHg 55%
    10:00 +28°C° 0 mm 4 mps 731 mmHg 45%
    11:00 +30°C° 0 mm 4 mps 731 mmHg 36%
    12:00 +30°C° 0 mm 5 mps 731 mmHg 33%
    13:00 +32°C° 0 mm 5 mps 731 mmHg 31%
    14:00 +32°C° 0 mm 5 mps 731 mmHg 29%
    15:00 +32°C° 0 mm 5 mps 731 mmHg 30%
    16:00 +30°C° 0 mm 5 mps 730 mmHg 32%
    17:00 +30°C° 0 mm 4 mps 730 mmHg 33%
    18:00 +27°C° 0 mm 4 mps 730 mmHg 40%
    19:00 +25°C° 0 mm 3 mps 730 mmHg 47%
    20:00 +21°C° 0 mm 2 mps 730 mmHg 53%
    21:00 +20°C° 0 mm 2 mps 730 mmHg 57%
    22:00 +20°C° 0 mm 1 mps 730 mmHg 61%
    23:00 +20°C° 0 mm 1 mps 730 mmHg 64%

    Tomorrow, 21 August, Tuesday

    Time Temperature Precipitation Wind Pressure Humidity
    00:00 +19°C° 0 mm 1 mps 730 mmHg 66%
    01:00 +19°C° 0 mm 1 mps 730 mmHg 67%
    02:00 +16°C° 0 mm 0 mps 730 mmHg 68%
    03:00 +18°C° 0 mm 1 mps 730 mmHg 69%
    04:00 +18°C° 0 mm 1 mps 730 mmHg 69%
    05:00 +16°C° 0 mm 1 mps 730 mmHg 70%
    06:00 +19°C° 0 mm 1 mps 730 mmHg 64%
    07:00 +21°C° 0 mm 1 mps 730 mmHg 57%
    08:00 +23°C° 0 mm 2 mps 731 mmHg 51%
    09:00 +25°C° 0 mm 2 mps 731 mmHg 44%
    10:00 +27°C° 0 mm 3 mps 731 mmHg 37%
    11:00 +29°C° 0 mm 4 mps 731 mmHg 29%
    12:00 +30°C° 0 mm 4 mps 731 mmHg 28%
    13:00 +32°C° 0 mm 4 mps 731 mmHg 27%
    14:00 +33°C° 0 mm 5 mps 731 mmHg 26%
    15:00 +32°C° 0 mm 4 mps 731 mmHg 28%
    16:00 +32°C° 0 mm 4 mps 730 mmHg 30%
    17:00 +30°C° 0 mm 4 mps 730 mmHg 31%
    18:00 +27°C° 0 mm 3 mps 730 mmHg 37%
    19:00 +25°C° 0 mm 3 mps 730 mmHg 44%
    20:00 +21°C° 0 mm 2 mps 730 mmHg 50%
    21:00 +20°C° 0 mm 2 mps 730 mmHg 53%
    22:00 +21°C° 0 mm 1 mps 730 mmHg 55%
    23:00 +20°C° 0 mm 1 mps 731 mmHg 58%

    Day after tomorrow, 22 August, Wednesday

    Time Temperature Precipitation Wind Pressure Humidity
    00:00 +20°C° 0 mm 1 mps 731 mmHg 57%
    01:00 +19°C° 0 mm 1 mps 731 mmHg 56%
    02:00 +19°C° 0 mm 1 mps 731 mmHg 55%
    03:00 +19°C° 0 mm 1 mps 731 mmHg 53%
    04:00 +19°C° 0 mm 1 mps 731 mmHg 51%
    05:00 +19°C° 0 mm 1 mps 731 mmHg 50%
    06:00 +20°C° 0 mm 2 mps 731 mmHg 47%
    07:00 +23°C° 0 mm 2 mps 731 mmHg 45%
    08:00 +25°C° 0 mm 2 mps 732 mmHg 42%
    09:00 +27°C° 0 mm 3 mps 732 mmHg 40%
    10:00 +29°C° 0 mm 3 mps 732 mmHg 37%
    11:00 +32°C° 0 mm 4 mps 732 mmHg 34%
    12:00 +32°C° 0 mm 4 mps 732 mmHg 34%
    13:00 +32°C° 0 mm 4 mps 732 mmHg 33%
    14:00 +32°C° 0 mm 4 mps 732 mmHg 33%
    15:00 +32°C° 0 mm 4 mps 732 mmHg 34%
    16:00 +32°C° 0 mm 4 mps 731 mmHg 36%
    17:00 +30°C° 0 mm 4 mps 731 mmHg 37%
    18:00 +28°C° 0 mm 3 mps 731 mmHg 43%
    19:00 +26°C° 0 mm 3 mps 731 mmHg 50%
    20:00 +24°C° 0 mm 2 mps 732 mmHg 57%
    21:00 +23°C° 0 mm 2 mps 732 mmHg 62%
    22:00 +22°C° 0 mm 1 mps 732 mmHg 66%
    23:00 +22°C° 0 mm 1 mps 732 mmHg 71%

    23 August, Thursday

    Time Temperature Precipitation Wind Pressure Humidity
    00:00 +21°C° 0 mm 1 mps 732 mmHg 74%
    01:00 +21°C° 0 mm 1 mps 731 mmHg 77%
    02:00 +21°C° 0 mm 1 mps 731 mmHg 79%
    03:00 +20°C° 0 mm 1 mps 731 mmHg 80%
    04:00 +19°C° 0 mm 2 mps 731 mmHg 82%
    05:00 +19°C° 0 mm 2 mps 731 mmHg 83%
    06:00 +20°C° 0 mm 2 mps 731 mmHg 76%
    07:00 +22°C° 0 mm 3 mps 731 mmHg 69%
    08:00 +25°C° 0 mm 4 mps 732 mmHg 62%
    09:00 +26°C° 0 mm 4 mps 732 mmHg 54%
    10:00 +28°C° 0 mm 5 mps 732 mmHg 46%
    11:00 +30°C° 0 mm 5 mps 732 mmHg 38%
    12:00 +30°C° 0 mm 5 mps 732 mmHg 36%
    13:00 +32°C° 0 mm 5 mps 731 mmHg 34%
    14:00 +32°C° 0 mm 5 mps 731 mmHg 32%
    15:00 +32°C° 0 mm 5 mps 731 mmHg 34%
    16:00 +30°C° 0 mm 5 mps 731 mmHg 36%
    17:00 +29°C° 0 mm 5 mps 730 mmHg 37%
    18:00 +27°C° 0 mm 4 mps 730 mmHg 46%
    19:00 +24°C° 0 mm 3 mps 730 mmHg 55%
    20:00 +21°C° 0 mm 3 mps 730 mmHg 64%
    21:00 +20°C° 0 mm 2 mps 730 mmHg 70%
    22:00 +19°C° 0 mm 2 mps 730 mmHg 76%
    23:00 +19°C° 0 mm 1 mps 730 mmHg 82%

    24 August, Friday

    Time Temperature Precipitation Wind Pressure Humidity
    00:00 +19°C° 0 mm 1 mps 730 mmHg 84%
    01:00 +18°C° 0 mm 1 mps 730 mmHg 85%
    02:00 +18°C° 0 mm 1 mps 729 mmHg 87%
    03:00 +18°C° 0 mm 1 mps 729 mmHg 88%
    04:00 +16°C° 0 mm 1 mps 729 mmHg 89%
    05:00 +16°C° 0 mm 1 mps 729 mmHg 90%
    06:00 +19°C° 0 mm 1 mps 729 mmHg 84%
    07:00 +20°C° 0 mm 2 mps 729 mmHg 77%
    08:00 +21°C° 0 mm 2 mps 730 mmHg 71%
    09:00 +25°C° 0 mm 2 mps 730 mmHg 62%
    10:00 +27°C° 0 mm 2 mps 730 mmHg 53%
    11:00 +29°C° 0 mm 2 mps 730 mmHg 44%
    12:00 +30°C° 0 mm 2 mps 729 mmHg 40%
    13:00 +31°C° 0 mm 2 mps 729 mmHg 37%
    14:00 +32°C° 0 mm 2 mps 728 mmHg 34%
    15:00 +31°C° 0 mm 3 mps 728 mmHg 35%
    16:00 +31°C° 0 mm 3 mps 728 mmHg 37%
    17:00 +30°C° 0 mm 3 mps 728 mmHg 39%
    18:00 +28°C° 0 mm 3 mps 728 mmHg 47%
    19:00 +26°C° 0 mm 3 mps 728 mmHg 54%
    20:00 +22°C° 0 mm 3 mps 728 mmHg 62%
    21:00 +21°C° 0 mm 2 mps 727 mmHg 67%
    22:00 +20°C° 0 mm 2 mps 727 mmHg 71%
    23:00 +21°C° 0 mm 1 mps 727 mmHg 76%

    25 August, Saturday

    Time Temperature Precipitation Wind Pressure Humidity
    00:00 +20°C° 0 mm 1 mps 727 mmHg 76%
    01:00 +20°C° 0 mm 1 mps 727 mmHg 76%
    02:00 +20°C° 0 mm 1 mps 727 mmHg 75%
    03:00 +19°C° 0 mm 1 mps 727 mmHg 75%
    04:00 +19°C° 0 mm 1 mps 727 mmHg 74%
    05:00 +19°C° 0 mm 1 mps 727 mmHg 73%
    06:00 +21°C° 0 mm 1 mps 727 mmHg 65%
    07:00 +23°C° 0 mm 1 mps 727 mmHg 57%
    08:00 +25°C° 0 mm 1 mps 728 mmHg 49%
    09:00 +27°C° 0 mm 1 mps 728 mmHg 42%
    10:00 +29°C° 0 mm 1 mps 728 mmHg 35%
    11:00 +31°C° 0 mm 2 mps 728 mmHg 28%
    12:00 +32°C° 0 mm 2 mps 727 mmHg 26%
    13:00 +34°C° 0 mm 2 mps 727 mmHg 25%
    14:00 +34°C° 0 mm 2 mps 727 mmHg 23%
    15:00 +34°C° 0 mm 2 mps 726 mmHg 24%
    16:00 +34°C° 0 mm 2 mps 726 mmHg 25%
    17:00 +34°C° 0 mm 2 mps 726 mmHg 25%
    18:00 +30°C° 0 mm 2 mps 726 mmHg 31%
    19:00 +27°C° 0 mm 2 mps 726 mmHg 37%
    20:00 +25°C° 0 mm 2 mps 726 mmHg 43%
    21:00 +24°C° 0 mm 2 mps 726 mmHg 47%
    22:00 +23°C° 0 mm 2 mps 726 mmHg 50%
    23:00 +22°C° 0 mm 1 mps 726 mmHg 54%
    Show more